< < Back
Terminal Aerodrome Forecast


Current Version              Previous Versions:   1  2  3  4  5  6  7  8  9  

Terminal Aerodrome Forecast

015
FTUS44 KMRX 251720
TAFCHA
TAF
KCHA 251720Z 2518/2618 20003KT P6SM BKN150
     FM260100 00000KT P6SM SCT150
     FM261400 20008KT P6SM SCT060 BKN150=



Latest METAR

698
SAUS80 KWBC 260100 RRE
MTRCHA
METAR KCHA 260153Z 13003KT 10SM SCT070 SCT200 BKN250 26/14 A3017 RMK AO2
SLP209 T02610144


USA.gov is the U.S. government's official web portal to all federal, state and local government web resources and services.